Hourly Data Report for October 03, 2013

All times are specified in Local Standard Time (LST). Add 1 hour to adjust for Daylight Saving Time where and when it is observed.

ST LEONARD CS
NEW BRUNSWICK

47°09'28.050" N
67°49'55.014" W
245.00 m
810I001
71019
WIY

Download Data

Hourly Data (October 2013)
Hourly Data Report for October 3, 2013
Temp Definition
°C
Dew Point Temp Definition
°C
Rel Hum Definition
%
Wind Dir Definition
10's deg

Wind Spd Definition
km/h
Visibility Definition
km
Stn Press Definition
kPa
Hmdx Definition


Wind Chill Definition


Weather Definition


TIME
00:00 13.2 5.9 61 29 17   97.89     LegendNANA
01:00 11.7 5.6 66 28 11   97.93     LegendNANA
02:00 12.5 5.3 61 29 19   97.96     LegendNANA
03:00 11.9 5.2 63 31 19   97.98     LegendNANA
04:00 11.2 5.2 67 31 19   98.01     LegendNANA
05:00 9.8 5.2 73 28 11   98.09     LegendNANA
06:00 10.0 5.5 74 28 17   98.16     LegendNANA
07:00 9.5 5.7 77 27 11   98.22     LegendNANA
08:00 11.6 6.4 70 29 11   98.29     LegendNANA
09:00 13.7 6.1 60 29 19   98.34     LegendNANA
10:00 13.4 5.3 58 31 33   98.36     LegendNANA
11:00 14.4 5.6 55 30 22   98.37     LegendNANA
12:00 15.4 5.0 50 29 28   98.36     LegendNANA
13:00 17.3 4.9 44 28 26   98.30     LegendNANA
14:00 17.0 4.8 44 28 30   98.32     LegendNANA
15:00 17.6 4.3 41 30 30   98.30     LegendNANA
16:00 17.8 4.1 40 29 28   98.32     LegendNANA
17:00 17.0 4.3 43 30 28   98.34     LegendNANA
18:00 15.0 3.7 47 30 32   98.40     LegendNANA
19:00 13.4 3.8 52 30 17   98.46     LegendNANA
20:00 10.8 3.7 61 29 9   98.48     LegendNANA
21:00 9.1 3.8 69   0   98.49     LegendNANA
22:00 9.8 4.0 67 22 6   98.48     LegendNANA
23:00 7.5 4.2 80 17 2   98.48     LegendNANA

Notes on Data Quality.

Legend

  • E = Estimated
  • M = Missing
  • NA = Not Available
  • ‡ = Partner data that is not subject to review by the National Climate Archives
Date modified: